Location: Unspecified
(0.0000°N, 0.0000°E)
Time: 20:37:07
(UTC+00:00)

DMSP 5D-2 F13 DEB - Visible Passes

Search period start: 10 April 2026 00:00
Search period end: 20 April 2026 00:00
Orbit: 737 x 750 km, 98.6° (Epoch: 5 April)

Date Brightness Start Highest point End Pass type
(mag) Time Alt. Az. Time Alt. Az. Time Alt. Az.
13 Apr ? 20:01:25 11° N 20:01:25 11° N 20:01:34 10° N visible
15 Apr ? 20:13:50 11° N 20:13:50 11° N 20:14:03 10° N visible
17 Apr ? 20:26:13 11° NNW 20:26:13 11° NNW 20:26:21 10° NNW visible
18 Apr ? 19:42:31 10° NNE 19:42:31 10° NNE 19:42:33 10° NNE visible
